This demonstration page uses our WeatherBlox Daily Observations layout. Learn more.

Left ArrowRight Arrow

Hourly Observations for November 24, 2021

Temp ( °F °C ) Dew Point ( °F °C ) Humidity (%) Winds ( mph kmh ) Pressure ( in mb ) Visibility ( mi km ) Precip ( " mm )
12:56 am 00:56 Clear 45 7.2 28 -2.2 52 52 W 5 7 29.57 1001 10 16 0.00 0.00
1:56 am 01:56 Clear 44 6.7 29 -1.7 55 55 NW 8 13 29.56 1001 10 16 0.00 0.00
2:56 am 02:56 Clear 44 6.7 28 -2.2 53 53 NW 9 15 29.58 1002 10 16 0.00 0.00
3:56 am 03:56 Clear 41 5 26 -3.3 55 55 WNW 8 13 29.61 1003 10 16 0.00 0.00
4:56 am 04:56 Clear 40 4.4 23 -5 51 51 WNW 6 9 29.66 1004 10 16 0.00 0.00
6:56 am 06:56 Clear 43 6.1 22 -5.6 43 43 NNW 10 17 29.71 1006 10 16 0.00 0.00
7:56 am 07:56 Sunny 44 6.7 23 -5 43 43 NNW 14 22 29.75 1007 10 16 0.00 0.00
8:56 am 08:56 Sunny 45 7.2 23 -5 42 42 NNW 20 31 29.81 1010 10 16 0.00 0.00
9:56 am 09:56 Mostly Sunny 46 7.8 22 -5.6 38 38 N 23 37 29.84 1010 10 16 0.00 0.00
10:56 am 10:56 Sunny 47 8.3 22 -5.6 37 37 N 23 37 29.89 1012 10 16 0.00 0.00
11:56 am 11:56 Sunny 46 7.8 24 -4.4 42 42 N 22 35 29.93 1013 10 16 0.00 0.00
12:56 pm 12:56 Sunny 47 8.3 22 -5.6 37 37 NNW 28 44 29.95 1014 10 16 0.00 0.00
1:56 pm 13:56 Mostly Sunny 46 7.8 24 -4.4 42 42 N 28 44 29.99 1016 10 16 0.00 0.00
2:56 pm 14:56 Sunny 44 6.7 25 -3.9 47 47 N 29 46 30.04 1017 10 16 0.00 0.00
3:56 pm 15:56 Mostly Sunny 42 5.6 25 -3.9 51 51 NNW 26 43 30.10 1019 10 16 0.00 0.00
4:56 pm 16:56 Cloudy 37 2.8 25 -3.9 62 62 N 30 48 30.17 1022 10 16 0.00 0.00
5:56 pm 17:56 Cloudy 35 1.7 25 -3.9 67 67 N 22 35 30.23 1024 10 16 0.00 0.00
7:56 pm 19:56 Cloudy 34 1.1 26 -3.3 73 73 N 23 37 30.32 1027 10 16 0.00 0.00
8:56 pm 20:56 Cloudy 35 1.7 26 -3.3 70 70 N 20 31 30.36 1028 10 16 0.00 0.00
9:56 pm 21:56 Mostly Cloudy 34 1.1 25 -3.9 70 70 N 20 31 30.38 1029 10 16 0.00 0.00
10:56 pm 22:56 Cloudy 33 0.6 24 -4.4 70 70 N 20 31 30.41 1030 10 16 0.00 0.00
11:56 pm 23:56 Cloudy 32 0 25 -3.9 75 75 NNW 16 26 30.43 1031 10 16 0.00 0.00

Powered by AerisWeather